| time (UTC) | temp F | wind direction | speed MPH | gust MPH | rain 1hr in | rain 24hr in | rain mn in | humidity % | barometer mb |
| 20260504081537 | 51 | 210 | 0.0 | 0.0 | 0.00 | 0.00 | 0.00 | 63 | 1009.8 |
| 20260504050011 | 53 | 176 | 0.0 | 0.0 | 0.00 | 0.00 | 0.00 | 59 | 1011.4 |
| 20260504044514 | 53 | 168 | 0.0 | 0.0 | 0.00 | 0.00 | 0.00 | 59 | 1011.5 |
| 20260504043010 | 53 | 141 | 0.0 | 0.0 | 0.00 | 0.00 | 0.00 | 59 | 1011.5 |
| 20260504041508 | 52 | 225 | 0.0 | 4.0 | 0.00 | 0.00 | 0.00 | 60 | 1011.7 |
| 20260504040036 | 52 | 172 | 0.0 | 0.0 | 0.00 | 0.00 | 0.00 | 60 | 1011.9 |
| 20260504034536 | 53 | 164 | 0.0 | 0.0 | 0.00 | 0.00 | 0.00 | 59 | 1012.1 |
| 20260504033037 | 53 | 171 | 0.0 | 0.0 | 0.00 | 0.00 | 0.00 | 58 | 1012.2 |
| 20260504031531 | 53 | 235 | 0.0 | 0.0 | 0.00 | 0.00 | 0.00 | 58 | 1012.2 |
| 20260504030028 | 53 | 203 | 0.0 | 0.0 | 0.00 | 0.00 | 0.00 | 57 | 1012.3 |
| 20260504024527 | 54 | 168 | 0.0 | 0.0 | 0.00 | 0.00 | 0.00 | 56 | 1012.5 |
| 20260504023027 | 54 | 167 | 0.0 | 0.0 | 0.00 | 0.00 | 0.00 | 56 | 1012.5 |
| 20260504021521 | 55 | 201 | 0.0 | 0.0 | 0.00 | 0.00 | 0.00 | 56 | 1012.3 |
| 20260504020019 | 55 | 184 | 0.0 | 0.0 | 0.00 | 0.00 | 0.00 | 55 | 1012.3 |
| 20260504014533 | 55 | 143 | 0.0 | 0.0 | 0.00 | 0.00 | 0.00 | 53 | 1012.3 |
| 20260504013014 | 56 | 251 | 0.0 | 6.0 | 0.00 | 0.00 | 0.00 | 50 | 1012.0 |
| 20260504011508 | 57 | 222 | 0.0 | 0.0 | 0.00 | 0.00 | 0.00 | 44 | 1012.1 |
| 20260504010007 | 57 | 220 | 0.0 | 0.0 | 0.00 | 0.00 | 0.00 | 44 | 1012.1 |
| 20260504004507 | 57 | 148 | 0.0 | 0.0 | 0.00 | 0.00 | 0.00 | 43 | 1012.1 |
| 20260504003006 | 57 | 217 | 0.0 | 0.0 | 0.00 | 0.00 | 0.00 | 42 | 1012.1 |
| 20260504001545 | 58 | 185 | 0.0 | 1.0 | 0.00 | 0.00 | 0.00 | 42 | 1011.9 |
| 20260504000041 | 58 | 234 | 0.0 | 0.0 | 0.00 | 0.00 | 0.00 | 42 | 1011.7 |
| 20260503234529 | 58 | 200 | 0.0 | 0.0 | 0.00 | 0.00 | 0.00 | 41 | 1011.8 |
| 20260503233025 | 59 | 219 | 0.0 | 0.0 | 0.00 | 0.00 | 0.00 | 41 | 1011.9 |
| 20260503231523 | 59 | 146 | 0.0 | 0.0 | 0.00 | 0.00 | 0.00 | 41 | 1012.4 |
| 20260503230021 | 59 | 231 | 0.0 | 1.0 | 0.00 | 0.00 | 0.00 | 39 | 1012.6 |
| 20260503224516 | 59 | 269 | 0.0 | 5.0 | 0.00 | 0.00 | 0.00 | 38 | 1013.0 |
| 20260503223013 | 60 | 119 | 0.0 | 11.0 | 0.00 | 0.00 | 0.00 | 37 | 1013.2 |
| 20260503221610 | 61 | 297 | 0.0 | 13.0 | 0.00 | 0.00 | 0.00 | 36 | 1013.3 |
| 20260503220008 | 61 | 285 | 2.0 | 12.0 | 0.00 | 0.00 | 0.00 | 37 | 1013.4 |
| 20260503214508 | 60 | 237 | 0.0 | 10.0 | 0.00 | 0.00 | 0.00 | 38 | 1013.3 |
| 20260503213002 | 60 | 276 | 0.0 | 8.0 | 0.00 | 0.00 | 0.00 | 37 | 1013.5 |
| 20260503211558 | 60 | 199 | 0.0 | 0.0 | 0.00 | 0.00 | 0.00 | 36 | 1014.0 |
| 20260503210100 | 59 | 259 | 0.0 | 0.0 | 0.00 | 0.00 | 0.00 | 37 | 1014.2 |
| 20260503204527 | 60 | 245 | 1.0 | 10.0 | 0.00 | 0.00 | 0.00 | 36 | 1014.3 |
| 20260503203029 | 60 | 211 | 0.0 | 10.0 | 0.00 | 0.00 | 0.00 | 37 | 1014.1 |
| 20260503201556 | 60 | 99 | 4.0 | 16.0 | 0.00 | 0.00 | 0.00 | 36 | 1014.4 |
| 20260503200054 | 60 | 169 | 0.0 | 8.0 | 0.00 | 0.00 | 0.00 | 35 | 1014.4 |
| 20260503194606 | 61 | 300 | 0.0 | 0.0 | 0.00 | 0.00 | 0.00 | 37 | 1014.6 |
| 20260503193048 | 60 | 242 | 0.0 | 13.0 | 0.00 | 0.00 | 0.00 | 36 | 1015.1 |
| 20260503191546 | 61 | 207 | 3.0 | 19.0 | 0.00 | 0.00 | 0.00 | 35 | 1015.1 |
| 20260503190052 | 61 | 109 | 1.0 | 11.0 | 0.00 | 0.00 | 0.00 | 35 | 1015.4 |
| 20260503184541 | 60 | 203 | 0.0 | 18.0 | 0.00 | 0.00 | 0.00 | 37 | 1015.8 |
| 20260503183045 | 60 | 229 | 0.0 | 14.0 | 0.00 | 0.00 | 0.00 | 39 | 1015.9 |
| 20260503181539 | 60 | 252 | 0.0 | 0.0 | 0.00 | 0.00 | 0.00 | 39 | 1016.1 |
| 20260503180038 | 59 | 27 | 0.0 | 16.0 | 0.00 | 0.00 | 0.00 | 36 | 1016.4 |
| 20260503174534 | 59 | 240 | 0.0 | 0.0 | 0.00 | 0.00 | 0.00 | 35 | 1016.4 |
| 20260503173056 | 59 | 252 | 0.0 | 0.0 | 0.00 | 0.00 | 0.00 | 37 | 1016.7 |
| 20260503171532 | 59 | 186 | 0.0 | 0.0 | 0.00 | 0.00 | 0.00 | 36 | 1017.1 |